sat.trackr.live / text

‹ back to catalog

STARLINK-5490

NORAD 57254 · 2023-094AN

PAYLOAD ACTIVE UNKNOWN

§ Identity

Operator
Country
US
Launch date
2023-07-07
Launch site
AFWTR
Launch vehicle
Mass (kg)
RCS (m²)

Purposes: comms

External: N2YO · Heavens-Above · Gunter

§ Orbital elements

Epoch: 2026-09-19T18:14:19.580640Z

Period
94.27 min
Inclination
43.0052°
Eccentricity
0.0002415
Mean motion
15.27575348 rev/d
Perigee alt
481.4 km
Apogee alt
484.7 km
Semi-major
6,861.2 km
B*
2.0983e-5
RAAN
3.6090°
Arg perigee
270.8400°
Mean anomaly
89.2175°
Rev number
17,692

§ Raw data

STARLINK-54901 57254U 23094AN  26262.75994885  .00000315  00000+0  20983-4 0  99982 57254  43.0052   3.6090 0002415 270.8400  89.2175 15.27575348176924

JSON: /api/v1/satellites/57254 · /tle

For live sub-satellite position, see the globe view (requires WebGL).

§ Visibility from observer

Set your observer location to see the next 7 days of passes ≥ 10°. The values pass through the URL so the page stays shareable.

No JS? Fill the form by hand. The geolocation button needs JavaScript.